Time,TemperatureF,DewpointF,PressureIn,WindDirection,WindDirectionDegrees,WindSpeedMPH,WindSpeedGustMPH,Humidity,HourlyPrecipIn,Conditions,Clouds,dailyrainin,SolarRadiationWatts/m^2,SoftwareType,DateUTC
2013-03-06 00:21:00,22.0,19.0,-100.00,East,101,0.0,0.0,89,0.00,,,0.00,0.000000,,2013-03-06 09:21:00,
2013-03-06 00:31:00,22.0,19.0,-100.00,East,101,0.0,0.0,89,0.00,,,0.00,0.000000,,2013-03-06 09:31:00,
2013-03-06 00:41:00,22.0,19.0,-100.00,East,101,0.0,0.0,89,0.00,,,0.00,0.000000,,2013-03-06 09:41:00,
2013-03-06 00:51:00,22.0,19.0,-100.00,East,101,0.0,0.0,89,0.00,,,0.00,0.000000,,2013-03-06 09:51:00,
2013-03-06 01:00:00,20.0,17.0,-100.00,East,98,0.0,0.0,89,-99.99,,,-99.99,,,2013-03-06 10:00:00,
2013-03-06 01:21:00,20.0,17.0,-100.00,East,98,0.0,0.0,89,0.00,,,0.00,0.000000,,2013-03-06 10:21:00,
2013-03-06 01:31:00,20.0,17.0,-100.00,East,98,0.0,0.0,89,0.00,,,0.00,0.000000,,2013-03-06 10:31:00,
2013-03-06 01:42:00,20.0,17.0,-100.00,East,98,0.0,0.0,89,0.00,,,0.00,0.000000,,2013-03-06 10:42:00,
2013-03-06 01:51:00,20.0,17.0,-100.00,East,98,0.0,0.0,89,0.00,,,0.00,0.000000,,2013-03-06 10:51:00,
2013-03-06 02:22:00,18.0,15.0,-100.00,East,85,0.0,0.0,89,0.00,,,0.00,0.000000,,2013-03-06 11:22:00,
2013-03-06 02:32:00,18.0,15.0,-100.00,East,85,0.0,0.0,89,0.00,,,0.00,0.000000,,2013-03-06 11:32:00,
2013-03-06 02:42:00,18.0,15.0,-100.00,East,85,0.0,0.0,89,0.00,,,0.00,0.000000,,2013-03-06 11:42:00,
2013-03-06 02:52:00,18.0,15.0,-100.00,East,85,0.0,0.0,89,0.00,,,0.00,0.000000,,2013-03-06 11:52:00,
2013-03-06 03:21:00,16.0,13.0,-100.00,East,81,0.0,0.0,89,0.00,,,0.00,0.000000,,2013-03-06 12:21:00,
2013-03-06 03:32:00,16.0,13.0,-100.00,East,81,0.0,0.0,89,0.00,,,0.00,0.000000,,2013-03-06 12:32:00,
2013-03-06 03:42:00,16.0,13.0,-100.00,East,81,0.0,0.0,89,0.00,,,0.00,0.000000,,2013-03-06 12:42:00,
2013-03-06 03:52:00,16.0,13.0,-100.00,East,81,0.0,0.0,89,0.00,,,0.00,0.000000,,2013-03-06 12:52:00,
2013-03-06 04:21:00,17.0,15.0,-100.00,ESE,102,0.0,0.0,90,0.00,,,0.00,0.000000,,2013-03-06 13:21:00,
2013-03-06 04:32:00,17.0,15.0,-100.00,ESE,102,0.0,0.0,90,0.00,,,0.00,0.000000,,2013-03-06 13:32:00,
2013-03-06 04:42:00,17.0,15.0,-100.00,ESE,102,0.0,0.0,90,0.00,,,0.00,0.000000,,2013-03-06 13:42:00,
2013-03-06 04:51:00,17.0,15.0,-100.00,ESE,102,0.0,0.0,90,0.00,,,0.00,0.000000,,2013-03-06 13:51:00,
2013-03-06 05:21:00,18.0,15.0,-100.00,ESE,115,0.0,0.0,89,0.00,,,0.00,0.000000,,2013-03-06 14:21:00,
2013-03-06 05:32:00,18.0,15.0,-100.00,ESE,115,0.0,0.0,89,0.00,,,0.00,0.000000,,2013-03-06 14:32:00,
2013-03-06 05:41:00,18.0,15.0,-100.00,ESE,115,0.0,0.0,89,0.00,,,0.00,0.000000,,2013-03-06 14:41:00,
2013-03-06 05:52:00,18.0,15.0,-100.00,ESE,115,0.0,0.0,89,0.00,,,0.00,0.000000,,2013-03-06 14:52:00,
2013-03-06 06:21:00,19.0,16.0,-100.00,East,97,0.0,0.0,89,-99.99,,,0.00,0.000000,,2013-03-06 15:21:00,
2013-03-06 06:32:00,19.0,16.0,-100.00,East,97,0.0,0.0,89,-99.99,,,0.00,0.000000,,2013-03-06 15:32:00,
2013-03-06 06:42:00,19.0,16.0,-100.00,East,97,0.0,0.0,89,-99.99,,,0.00,0.000000,,2013-03-06 15:42:00,
2013-03-06 06:51:00,19.0,16.0,-100.00,East,97,0.0,0.0,89,-99.99,,,0.00,0.000000,,2013-03-06 15:51:00,
2013-03-06 07:21:00,18.0,15.0,-100.00,East,79,0.0,0.0,88,0.00,,,0.00,0.000000,,2013-03-06 16:21:00,
2013-03-06 08:21:00,18.0,15.0,-100.00,SE,137,0.0,0.0,89,-99.99,,,0.00,1.000000,,2013-03-06 17:21:00,
2013-03-06 09:28:00,18.0,15.0,-100.00,ENE,57,1.0,2.0,88,-99.99,,,0.00,19.000000,,2013-03-06 18:28:00,
2013-03-06 09:42:00,18.0,15.0,-100.00,ENE,57,1.0,2.0,88,-99.99,,,0.00,19.000000,,2013-03-06 18:42:00,
2013-03-06 09:52:00,18.0,15.0,-100.00,ENE,57,1.0,2.0,88,-99.99,,,0.00,19.000000,,2013-03-06 18:52:00,
2013-03-06 10:21:00,24.0,21.0,-100.00,ENE,62,0.0,2.0,87,-99.99,,,0.00,62.000000,,2013-03-06 19:21:00,
2013-03-06 10:32:00,24.0,21.0,-100.00,ENE,62,0.0,2.0,87,-99.99,,,0.00,62.000000,,2013-03-06 19:32:00,
2013-03-06 10:42:00,24.0,21.0,-100.00,ENE,62,0.0,2.0,87,-99.99,,,0.00,62.000000,,2013-03-06 19:42:00,
2013-03-06 10:52:00,24.0,21.0,-100.00,ENE,62,0.0,2.0,87,-99.99,,,0.00,62.000000,,2013-03-06 19:52:00,
2013-03-06 11:22:00,30.0,24.0,-100.00,West,277,1.0,3.0,79,0.00,,,0.00,106.000000,,2013-03-06 20:22:00,
2013-03-06 11:32:00,30.0,24.0,-100.00,West,277,1.0,3.0,79,0.00,,,0.00,106.000000,,2013-03-06 20:32:00,
2013-03-06 11:42:00,30.0,24.0,-100.00,West,277,1.0,3.0,79,0.00,,,0.00,106.000000,,2013-03-06 20:42:00,
2013-03-06 11:52:00,30.0,24.0,-100.00,West,277,1.0,3.0,79,0.00,,,0.00,106.000000,,2013-03-06 20:52:00,
2013-03-06 12:22:00,34.0,24.0,-100.00,NNW,339,2.0,4.0,67,0.00,,,0.00,141.000000,,2013-03-06 21:22:00,
2013-03-06 12:32:00,34.0,24.0,-100.00,NNW,339,2.0,4.0,67,0.00,,,0.00,141.000000,,2013-03-06 21:32:00,
2013-03-06 12:42:00,34.0,24.0,-100.00,NNW,339,2.0,4.0,67,0.00,,,0.00,141.000000,,2013-03-06 21:42:00,
2013-03-06 12:51:00,34.0,24.0,-100.00,NNW,339,2.0,4.0,67,0.00,,,0.00,141.000000,,2013-03-06 21:51:00,
2013-03-06 13:21:00,35.0,23.0,-100.00,North,9,2.0,4.0,62,0.00,,,0.00,152.000000,,2013-03-06 22:21:00,
2013-03-06 13:32:00,35.0,23.0,-100.00,North,9,2.0,4.0,62,0.00,,,0.00,152.000000,,2013-03-06 22:32:00,
2013-03-06 13:41:00,35.0,23.0,-100.00,North,9,2.0,4.0,62,0.00,,,0.00,152.000000,,2013-03-06 22:41:00,
2013-03-06 13:51:00,35.0,23.0,-100.00,North,9,2.0,4.0,62,0.00,,,0.00,152.000000,,2013-03-06 22:51:00,
2013-03-06 14:21:00,36.0,22.0,-100.00,WNW,296,3.0,4.0,57,0.00,,,0.00,169.000000,,2013-03-06 23:21:00,
2013-03-06 14:31:00,36.0,22.0,-100.00,WNW,296,3.0,4.0,57,0.00,,,0.00,169.000000,,2013-03-06 23:31:00,
2013-03-06 14:41:00,36.0,22.0,-100.00,WNW,296,3.0,4.0,57,0.00,,,0.00,169.000000,,2013-03-06 23:41:00,
2013-03-06 14:52:00,36.0,22.0,-100.00,WNW,296,3.0,4.0,57,0.00,,,0.00,169.000000,,2013-03-06 23:52:00,
2013-03-06 15:21:00,35.0,21.0,-100.00,North,351,3.0,7.0,56,0.00,,,0.00,142.000000,,2013-03-07 00:21:00,
2013-03-06 15:32:00,35.0,21.0,-100.00,North,351,3.0,7.0,56,0.00,,,0.00,142.000000,,2013-03-07 00:32:00,
2013-03-06 15:41:00,35.0,21.0,-100.00,North,351,3.0,7.0,56,0.00,,,0.00,142.000000,,2013-03-07 00:41:00,
2013-03-06 15:51:00,35.0,21.0,-100.00,North,351,3.0,7.0,56,0.00,,,0.00,142.000000,,2013-03-07 00:51:00,
2013-03-06 16:21:00,37.0,22.0,-100.00,NNW,343,2.0,7.0,54,0.00,,,0.00,145.000000,,2013-03-07 01:21:00,
2013-03-06 16:31:00,37.0,22.0,-100.00,NNW,343,2.0,7.0,54,0.00,,,0.00,145.000000,,2013-03-07 01:31:00,
2013-03-06 16:41:00,37.0,22.0,-100.00,NNW,343,2.0,7.0,54,0.00,,,0.00,145.000000,,2013-03-07 01:41:00,
2013-03-06 16:51:00,37.0,22.0,-100.00,NNW,343,2.0,7.0,54,0.00,,,0.00,145.000000,,2013-03-07 01:51:00,
2013-03-06 17:21:00,36.0,21.0,-100.00,North,5,2.0,6.0,54,0.00,,,0.00,117.000000,,2013-03-07 02:21:00,
2013-03-06 17:31:00,36.0,21.0,-100.00,North,5,2.0,6.0,54,0.00,,,0.00,117.000000,,2013-03-07 02:31:00,
2013-03-06 17:41:00,36.0,21.0,-100.00,North,5,2.0,6.0,54,0.00,,,0.00,117.000000,,2013-03-07 02:41:00,
2013-03-06 17:51:00,36.0,21.0,-100.00,North,5,2.0,6.0,54,0.00,,,0.00,117.000000,,2013-03-07 02:51:00,
2013-03-06 18:11:00,32.0,21.0,-100.00,NW,316,0.0,3.0,63,-99.99,,,-99.99,,,2013-03-07 03:11:00,
2013-03-06 18:21:00,32.0,21.0,-100.00,NW,316,0.0,4.0,63,0.00,,,0.00,49.000000,,2013-03-07 03:21:00,
2013-03-06 18:32:00,32.0,21.0,-100.00,NW,316,0.0,4.0,63,0.00,,,0.00,49.000000,,2013-03-07 03:32:00,
2013-03-06 18:41:00,32.0,21.0,-100.00,NW,316,0.0,4.0,63,0.00,,,0.00,49.000000,,2013-03-07 03:41:00,
2013-03-06 18:51:00,32.0,21.0,-100.00,NW,316,0.0,4.0,63,0.00,,,0.00,49.000000,,2013-03-07 03:51:00,
2013-03-06 19:21:00,29.0,21.0,-100.00,ESE,112,1.0,2.0,72,0.00,,,0.00,13.000000,,2013-03-07 04:21:00,
2013-03-06 19:31:00,29.0,21.0,-100.00,ESE,112,1.0,2.0,72,0.00,,,0.00,13.000000,,2013-03-07 04:31:00,
2013-03-06 19:41:00,29.0,21.0,-100.00,ESE,112,1.0,2.0,72,0.00,,,0.00,13.000000,,2013-03-07 04:41:00,
2013-03-06 19:51:00,29.0,21.0,-100.00,ESE,112,1.0,2.0,72,0.00,,,0.00,13.000000,,2013-03-07 04:51:00,
2013-03-06 20:22:00,28.0,22.0,-100.00,NE,34,1.0,2.0,77,0.00,,,0.00,0.000000,,2013-03-07 05:22:00,
2013-03-06 20:32:00,28.0,22.0,-100.00,NE,34,1.0,2.0,77,0.00,,,0.00,0.000000,,2013-03-07 05:32:00,
2013-03-06 20:41:00,28.0,22.0,-100.00,NE,34,1.0,2.0,77,0.00,,,0.00,0.000000,,2013-03-07 05:41:00,
2013-03-06 20:52:00,28.0,22.0,-100.00,NE,34,1.0,2.0,77,0.00,,,0.00,0.000000,,2013-03-07 05:52:00,
2013-03-06 21:21:00,25.0,20.0,-100.00,East,86,1.0,2.0,81,0.00,,,0.00,0.000000,,2013-03-07 06:21:00,
2013-03-06 21:31:00,25.0,20.0,-100.00,East,86,1.0,2.0,81,0.00,,,0.00,0.000000,,2013-03-07 06:31:00,
2013-03-06 21:41:00,25.0,20.0,-100.00,East,86,1.0,2.0,81,0.00,,,0.00,0.000000,,2013-03-07 06:41:00,
2013-03-06 21:51:00,25.0,20.0,-100.00,East,86,1.0,2.0,81,0.00,,,0.00,0.000000,,2013-03-07 06:51:00,
2013-03-06 22:21:00,22.0,18.0,-100.00,ESE,103,1.0,2.0,83,0.00,,,0.00,0.000000,,2013-03-07 07:21:00,
2013-03-06 22:32:00,22.0,18.0,-100.00,ESE,103,1.0,2.0,83,0.00,,,0.00,0.000000,,2013-03-07 07:32:00,
2013-03-06 22:42:00,22.0,18.0,-100.00,ESE,103,1.0,2.0,83,0.00,,,0.00,0.000000,,2013-03-07 07:42:00,
2013-03-06 22:51:00,22.0,18.0,-100.00,ESE,103,1.0,2.0,83,0.00,,,0.00,0.000000,,2013-03-07 07:51:00,
2013-03-06 23:22:00,20.0,16.0,-100.00,East,93,1.0,2.0,85,0.00,,,0.00,0.000000,,2013-03-07 08:22:00,
2013-03-06 23:43:00,20.0,16.0,-100.00,East,93,1.0,2.0,85,0.00,,,0.00,0.000000,,2013-03-07 08:43:00,
2013-03-06 23:52:00,20.0,16.0,-100.00,East,93,1.0,2.0,85,0.00,,,0.00,0.000000,,2013-03-07 08:52:00,